Location: ???? ????
(31.2831°N, 45.5190°E)
Time: 08:34:31
(UTC+00:00)

Cosmos 1470 Rocket - Pass Details

Date: 24 February 2021
Orbit: 603 x 634 km, 82.5° (Epoch: 15 April)

Event Time Altitude Azimuth Distance (km) Brightness Sun altitude
Rises 16:31:22 0° 182° (S) 2,911 7.0 -21.9°
Reaches altitude 10° 16:33:35 10° 181° (S) 2,008 6.2 -22.4°
Maximum altitude 16:38:03 79° 95° (E) 649 3.4 -23.3°
Enters shadow 16:38:54 57° 22° (NNE) 745 3.7 -23.5°
Exits shadow 16:43:15 - 8° (N) 2,307 6.4 -24.4°
Sets 16:44:46 0° 8° (N) 2,930 7.0 -24.7°
